Location: Godiavel Galaoual
(15.2485°N, 12.6604°W)
Time: 00:41:09
(UTC+00:00)

Explorer 7 - Pass Details

Date: 19 June 2021
Orbit: 484 x 676 km, 50.3° (Epoch: 29 July)

Event Time Altitude Azimuth Distance (km) Brightness Sun altitude
Rises 20:23:45 0° 241° (WSW) 2,960 11.0 -13.9°
Reaches altitude 10° 20:26:19 10° 253° (WSW) 2,071 10.4 -14.4°
Maximum altitude 20:30:28 29° 313° (NW) 1,227 9.4 -15.3°
Drops below altitude 10° 20:34:41 10° 13° (NNE) 2,102 10.0 -16.2°
Sets 20:37:20 0° 24° (NNE) 3,013 10.7 -16.7°
